Wind_Speed
38 31 30 30 32 32 28 25 27 25 24 24 23 22 20 15 14 17 19 22 28 32 38 42 50 54 55 58 58 68 73 85 97 101 106 109 103 76 61 45 26 8 16
33 30 34 35 35 36 34 27 26 25 24 26 25 23 22 19 18 20 22 20 23 28 33 42 48 54 56 57 59 62 69 78 90 99 101 109 110 88 62 50 29 9 15
41 42 38 38 37 37 40 32 25 29 22 23 25 24 22 25 22 24 24 25 25 29 33 38 40 52 57 56 56 56 66 72 84 94 102 103 107 103 71 54 31 15 17
43 41 40 40 41 42 40 38 33 28 24 22 25 27 25 25 25 26 26 25 26 30 35 35 40 47 51 53 57 54 63 69 82 90 94 105 103 105 87 58 35 22 19
43 50 38 37 46 47 49 42 41 27 25 26 25 28 29 26 28 26 28 30 28 30 34 40 40 38 47 51 53 55 59 66 73 82 87 100 104 101 100 72 47 31 25
38 42 40 44 46 46 53 46 37 26 29 33 30 32 32 29 27 26 29 32 33 31 35 37 40 38 44 50 51 52 54 57 70 78 81 92 100 94 98 93 59 41 32
36 23 23 33 40 41 41 36 33 35 39 42 40 34 35 33 29 29 28 31 34 35 34 36 36 39 41 42 49 53 51 54 61 69 76 83 94 98 94 93 86 51 32
57 49 43 47 49 53 48 43 34 41 42 47 44 39 37 34 30 29 29 30 35 36 33 34 34 34 33 38 45 50 52 51 55 64 67 71 83 92 93 93 91 76 41
72 65 35 39 39 52 45 39 41 50 53 57 54 41 39 36 35 29 28 26 30 34 33 34 37 36 34 34 40 44 48 52 51 57 63 65 73 81 90 90 92 88 67
70 80 72 63 51 45 42 46 55 59 59 61 58 51 44 42 36 31 25 19 23 22 27 27 33 36 34 22 31 40 43 47 51 53 58 58 64 73 80 85 89 87 86
73 80 79 78 78 75 64 64 63 61 61 64 66 62 52 43 35 30 25 16 20 22 29 30 30 24 22 24 26 34 39 42 47 51 52 55 59 63 68 78 82 84 86
99 92 88 84 73 72 74 78 69 69 68 68 68 60 48 37 37 36 26 21 22 25 26 25 26 16 20 24 25 30 34 38 41 46 46 49 51 57 59 66 74 78 80
99 101 106 105 99 96 91 93 87 85 83 79 75 69 59 38 40 37 34 23 27 26 25 24 24 18 20 21 22 32 33 34 38 39 38 43 47 50 55 56 63 69 71
102 102 102 103 104 100 99 98 92 86 82 78 73 69 65 56 49 45 42 33 29 28 28 25 23 27 23 24 28 26 33 34 33 38 32 35 40 45 49 56 58 62 68
107 107 108 105 104 101 101 99 94 88 82 78 75 70 68 58 49 41 40 40 36 31 27 29 28 27 23 25 30 33 32 31 31 33 33 28 31 36 43 51 56 62 70
110 106 107 109 103 100 94 95 92 89 84 79 76 70 66 61 53 49 43 42 40 32 29 33 31 31 31 27 28 31 28 28 28 31 30 27 22 29 34 44 48 57 62
110 111 105 104 102 101 101 100 94 89 85 77 71 66 62 58 53 52 46 43 40 37 35 35 33 32 31 27 28 26 30 30 25 31 17 22 19 22 26 32 36 42 47
105 112 111 109 107 102 97 94 90 89 88 83 82 78 72 66 59 52 46 43 41 42 41 38 38 33 30 30 29 23 29 28 24 25 20 10 14 17 25 34 35 38 42
91 97 105 110 112 112 110 106 102 96 87 80 80 76 72 65 62 59 56 50 48 48 44 44 42 38 32 30 27 24 25 21 22 23 23 14 11 11 18 26 28 35 40
93 93 94 95 101 106 109 112 113 105 94 90 86 81 75 69 67 62 60 58 53 51 47 47 48 46 39 36 30 25 27 21 17 22 21 14 10 12 20 20 26 30 36
95 92 89 87 88 89 94 102 101 103 105 98 92 86 79 73 69 68 65 61 59 53 52 50 50 50 48 42 40 36 28 24 22 26 24 23 22 14 26 25 29 25 26
98 95 90 86 83 82 84 88 92 94 96 96 96 91 83 76 71 68 66 64 59 56 54 53 52 51 51 45 45 43 38 34 32 28 30 25 24 26 34 28 26 29 21
83 85 84 80 82 81 80 81 84 87 90 91 94 89 86 81 76 71 67 64 60 57 54 54 54 53 50 49 47 46 41 41 38 37 32 31 34 36 32 28 25 19 16
77 77 78 77 79 80 79 78 78 81 84 85 86 89 89 84 81 76 71 66 61 57 56 55 54 54 52 51 49 51 48 46 41 39 39 40 39 35 31 23 18 15 20
71 69 73 76 78 77 75 74 72 73 76 78 80 82 84 85 82 79 77 72 66 61 57 58 55 53 53 56 52 51 53 52 49 49 44 40 37 37 35 30 28 32 32
67 62 64 68 72 73 72 71 68 67 69 72 75 76 77 79 81 82 80 78 72 66 60 58 58 55 53 55 52 52 52 53 51 49 50 49 40 38 38 40 40 42 44
Wind_Direction
270 278 290 291 296 303 310 321 331 350 359 3 356 350 335 320 326 333 333 355 356 1 18 18 19 18 13 13 17 14 18 14 17 19 18 17 16 15 14 17 21 62 149
260 271 280 285 290 296 297 304 317 332 351 354 358 348 343 317 308 318 321 342 342 360 10 13 15 17 14 12 19 15 17 14 19 21 21 20 18 19 16 17 22 63 149
266 276 271 274 275 281 290 294 304 315 338 349 349 352 338 335 308 310 317 327 330 341 356 8 9 16 15 10 14 15 13 13 14 20 22 20 20 20 20 17 28 78 142
260 264 284 273 274 283 283 285 297 303 322 339 341 344 342 333 327 308 311 315 322 331 337 352 2 8 18 11 11 15 14 16 17 23 23 23 24 24 23 22 35 86 126
259 267 270 276 271 280 282 281 293 289 314 326 331 335 340 329 330 315 304 309 313 326 331 333 350 4 14 12 9 10 14 18 18 23 26 24 23 26 28 27 37 74 82
253 253 258 267 272 277 278 275 280 283 307 320 324 328 335 332 322 321 305 303 306 313 322 331 332 358 4 8 9 9 7 16 21 20 28 23 25 27 30 33 40 57 68
237 231 249 283 273 269 269 270 262 283 300 309 313 322 326 328 323 323 311 307 310 310 315 326 334 339 343 2 7 9 9 12 19 21 24 26 29 28 30 35 38 51 60
238 246 273 276 260 254 252 255 269 287 298 302 307 314 319 323 317 320 313 312 317 315 311 314 325 341 348 1 6 9 9 12 13 21 22 24 27 29 31 33 38 45 51
238 255 272 275 244 241 250 252 274 281 289 294 299 305 310 312 313 314 306 324 324 321 321 313 312 325 337 340 3 6 8 6 14 15 21 23 28 29 30 33 37 38 44
235 238 237 238 256 237 259 262 268 269 277 283 289 296 301 301 307 306 306 323 324 326 319 323 324 321 335 339 358 2 6 6 6 15 18 18 25 31 33 31 37 40 37
233 238 243 242 242 244 253 258 261 269 270 276 284 289 293 299 307 302 303 306 317 315 307 316 325 332 321 327 341 355 1 5 2 11 15 18 23 25 35 33 33 41 41
232 235 240 240 238 242 243 248 260 264 267 275 280 285 288 293 298 298 296 286 314 305 313 319 322 299 299 301 320 356 358 1 2 11 11 11 17 22 26 37 37 38 41
238 237 239 243 247 248 249 252 254 260 266 271 274 278 278 282 279 283 289 278 287 288 298 295 293 301 284 301 317 351 351 354 360 7 13 15 16 24 24 26 33 38 38
239 241 240 242 243 248 252 256 259 260 262 266 270 272 275 274 273 268 273 268 273 278 275 276 285 297 301 300 314 326 339 347 352 359 4 14 19 26 28 22 30 32 39
240 241 243 244 245 245 247 251 253 257 259 262 265 268 269 270 271 269 266 264 266 270 267 271 278 280 280 289 303 324 329 332 340 345 354 5 27 25 29 32 25 39 42
239 242 243 244 246 248 247 249 251 254 255 260 262 264 265 266 264 264 268 261 260 262 261 257 267 274 272 285 297 306 315 326 335 334 346 340 28 30 22 36 29 38 38
239 240 242 243 244 247 248 250 250 250 251 251 255 258 259 263 265 260 259 257 256 255 254 254 259 267 276 283 292 299 300 308 322 333 343 336 15 35 31 24 21 22 34
241 239 239 241 243 244 244 244 247 249 250 251 251 253 257 260 261 261 255 252 257 251 254 254 258 264 274 277 282 288 291 297 305 322 319 334 353 11 32 24 22 18 19
241 242 241 240 240 242 245 248 249 249 248 248 245 252 256 256 256 257 259 258 261 263 256 253 254 253 262 273 275 276 287 295 301 302 312 285 311 354 14 10 10 13 11
241 243 244 242 242 241 243 246 247 248 248 246 247 250 253 252 253 255 258 258 258 260 256 253 253 256 256 263 265 267 276 282 285 297 306 273 286 324 344 357 3 4 6
240 243 245 245 242 243 242 242 244 245 246 247 248 250 250 251 251 252 255 256 257 256 251 252 253 256 256 255 257 260 264 279 287 287 283 284 273 296 322 335 342 352 3
239 241 243 245 244 241 241 240 241 243 243 245 247 248 248 249 250 251 252 254 254 254 255 251 250 252 256 253 256 258 259 266 276 282 277 272 259 282 301 311 323 334 345
237 239 239 240 241 240 238 240 239 241 242 243 244 244 245 246 248 249 250 251 253 253 255 251 252 251 253 256 254 256 262 264 271 272 271 265 276 284 297 301 311 317 330
238 237 236 236 238 240 240 238 238 238 240 241 242 243 243 244 245 246 247 249 251 254 255 252 249 248 250 252 254 249 254 264 266 269 267 269 277 284 287 293 298 314 313
234 235 235 234 234 236 239 240 240 237 237 239 240 241 242 242 242 243 245 247 248 251 253 255 252 249 249 251 252 251 252 256 262 265 268 272 275 268 281 281 291 300 300
231 230 232 234 234 234 236 239 239 237 236 237 239 240 241 242 242 243 244 245 246 247 248 252 252 249 249 250 247 248 251 253 258 261 265 268 267 262 265 279 286 292 296
Height
11019 11020 11020 11021 11020 11021 11022 11021 11019 11019 11017 11014 11010 11006 11003 11001 10999 10994 10990 10987 10980 10972 10964 10956 10948 10938 10927 10915 10902 10888 10872 10850 10829 10803 10778 10750 10722 10696 10677 10662 10652 10649 10648
11013 11013 11015 11017 11017 11016 11018 11018 11019 11017 11015 11012 11010 11006 11003 10999 10998 10995 10989 10986 10981 10974 10967 10958 10949 10941 10931 10919 10907 10893 10877 10859 10842 10819 10792 10765 10737 10709 10688 10673 10661 10656 10659
11009 11009 11009 11009 11010 11010 11012 11014 11015 11016 11014 11011 11008 11006 11003 10998 10995 10993 10989 10985 10980 10975 10968 10962 10954 10945 10936 10925 10912 10899 10885 10868 10849 10830 10806 10779 10751 10721 10697 10681 10671 10665 10669
11001 11004 11006 11004 11005 11006 11007 11009 11011 11012 11010 11008 11007 11003 11001 10997 10994 10991 10988 10983 10980 10975 10968 10964 10957 10948 10940 10930 10918 10905 10892 10877 10859 10841 10818 10795 10771 10742 10712 10693 10681 10678 10680
10995 10997 11000 10998 10999 10999 11001 11003 11006 11006 11006 11004 11003 11002 11000 10995 10992 10988 10986 10982 10978 10975 10969 10963 10959 10952 10944 10935 10923 10912 10900 10887 10871 10855 10834 10812 10791 10765 10737 10712 10698 10693 10693
10986 10986 10989 10992 10992 10992 10995 10998 11000 11000 11000 11000 11000 10998 10997 10993 10989 10987 10983 10980 10977 10975 10969 10963 10960 10954 10947 10940 10929 10918 10906 10894 10880 10863 10847 10831 10810 10786 10761 10739 10719 10711 10710
10975 10974 10975 10980 10983 10985 10986 10989 10991 10992 10992 10992 10996 10996 10994 10992 10987 10983 10980 10978 10975 10973 10969 10963 10959 10956 10950 10943 10934 10923 10912 10899 10886 10872 10858 10845 10824 10806 10782 10763 10748 10732 10733
10965 10967 10973 10969 10965 10973 10977 10980 10982 10983 10984 10985 10989 10993 10992 10989 10985 10982 10978 10976 10973 10970 10967 10962 10959 10956 10952 10944 10936 10927 10917 10906 10894 10884 10871 10859 10841 10823 10806 10785 10769 10756 10751
10959 10960 10973 10951 10956 10963 10969 10969 10972 10973 10976 10979 10983 10989 10988 10987 10983 10979 10976 10975 10971 10968 10965 10961 10958 10955 10951 10947 10939 10930 10921 10912 10902 10892 10882 10869 10855 10840 10826 10809 10789 10775 10768
10945 10951 10963 10955 10953 10956 10958 10958 10962 10970 10971 10972 10974 10981 10981 10981 10979 10976 10974 10974 10969 10967 10962 10959 10957 10953 10950 10945 10942 10934 10927 10917 10909 10901 10892 10879 10867 10853 10842 10828 10811 10797 10783
10924 10931 10937 10941 10942 10944 10951 10947 10952 10957 10963 10961 10966 10969 10973 10975 10974 10973 10972 10972 10968 10965 10961 10958 10956 10953 10946 10943 10942 10938 10930 10923 10914 10908 10899 10887 10876 10866 10857 10846 10830 10815 10804
10905 10912 10914 10921 10925 10927 10931 10934 10937 10946 10951 10955 10957 10961 10969 10971 10969 10968 10968 10968 10966 10962 10960 10956 10952 10949 10944 10940 10940 10941 10933 10926 10920 10913 10905 10894 10884 10876 10867 10860 10851 10839 10825
10877 10889 10893 10898 10904 10910 10917 10919 10928 10935 10940 10944 10948 10952 10958 10962 10960 10962 10961 10961 10961 10960 10955 10953 10949 10946 10943 10939 10940 10941 10937 10929 10922 10918 10911 10902 10892 10883 10877 10869 10861 10856 10846
10851 10860 10871 10878 10885 10891 10896 10903 10909 10918 10924 10932 10936 10940 10943 10950 10952 10955 10952 10953 10954 10954 10950 10949 10945 10942 10941 10938 10937 10937 10935 10931 10925 10921 10915 10907 10899 10891 10884 10877 10868 10861 10855
10827 10837 10843 10850 10863 10872 10879 10885 10894 10903 10909 10915 10922 10927 10930 10937 10941 10943 10942 10943 10945 10945 10944 10943 10940 10938 10937 10935 10933 10934 10933 10930 10926 10922 10919 10910 10904 10897 10889 10884 10877 10868 10863
10804 10813 10823 10830 10840 10847 10857 10864 10876 10885 10893 10901 10906 10911 10916 10923 10928 10930 10933 10934 10935 10934 10933 10934 10933 10931 10932 10932 10931 10929 10929 10928 10925 10921 10919 10913 10906 10899 10895 10887 10881 10875 10869
10777 10790 10798 10808 10818 10827 10835 10844 10856 10864 10876 10883 10889 10894 10901 10908 10913 10915 10920 10922 10923 10924 10923 10924 10924 10924 10924 10925 10926 10924 10923 10924 10924 10920 10918 10913 10907 10900 10896 10890 10884 10879 10874
10750 10765 10778 10788 10797 10807 10815 10825 10834 10845 10856 10866 10871 10878 10885 10893 10899 10902 10904 10909 10912 10914 10914 10915 10916 10917 10917 10918 10920 10918 10917 10918 10918 10918 10914 10911 10906 10901 10895 10890 10887 10881 10876
10729 10739 10751 10764 10776 10787 10795 10803 10813 10825 10838 10844 10852 10860 10867 10875 10882 10887 10890 10894 10898 10900 10901 10904 10906 10908 10910 10910 10912 10911 10910 10910 10910 10912 10909 10906 10903 10897 10894 10891 10886 10883 10879
10708 10718 10728 10741 10753 10763 10772 10780 10792 10804 10817 10825 10833 10843 10851 10859 10865 10871 10874 10879 10884 10886 10890 10892 10894 10896 10901 10902 10903 10904 10903 10903 10903 10903 10903 10901 10898 10895 10892 10889 10885 10881 10879
10688 10698 10708 10718 10730 10739 10749 10758 10768 10781 10792 10804 10814 10823 10833 10841 10848 10854 10859 10864 10867 10871 10875 10879 10882 10885 10889 10891 10892 10894 10896 10896 10894 10894 10895 10896 10893 10889 10888 10885 10882 10879 10876
10666 10677 10688 10698 10708 10719 10727 10736 10747 10759 10769 10779 10791 10803 10813 10822 10830 10836 10842 10847 10851 10855 10859 10864 10868 10871 10875 10879 10880 10881 10883 10886 10887 10885 10884 10885 10886 10883 10882 10880 10878 10875 10871
10644 10655 10667 10678 10688 10696 10705 10715 10726 10738 10748 10758 10768 10779 10792 10803 10812 10818 10825 10829 10835 10840 10844 10847 10851 10856 10860 10864 10867 10867 10871 10874 10876 10877 10876 10875 10875 10876 10875 10872 10872 10870 10867
10622 10634 10645 10658 10667 10677 10686 10696 10707 10718 10728 10738 10748 10760 10771 10782 10792 10800 10806 10812 10820 10824 10827 10832 10836 10840 10845 10848 10852 10855 10858 10860 10864 10865 10866 10865 10864 10863 10863 10864 10862 10863 10862
10602 10614 10625 10636 10647 10658 10669 10679 10689 10698 10708 10719 10730 10739 10750 10761 10772 10780 10787 10794 10803 10809 10812 10814 10820 10824 10829 10832 10835 10839 10843 10847 10849 10851 10854 10854 10852 10852 10852 10852 10851 10851 10852
10585 10598 10607 10616 10627 10641 10652 10662 10672 10681 10691 10701 10710 10720 10730 10741 10750 10758 10767 10775 10784 10791 10796 10799 10803 10808 10812 10816 10819 10822 10826 10831 10833 10835 10839 10841 10840 10839 10838 10838 10838 10838 10839